Regional Weather Roundup
Issued by NWS

Home | Current Version | Previous Version | Text Only | Print | Product List | Glossary On
Versions: 1 2 3 4 5 6 7 8 9 10 11 12 13 14 15 16 17 18 19 20 21 22 23 24 25 26 27 28 29 30 31 32 33 34 35 36 37 38 39 40 41 42 43 44 45 46 47 48 49 50
311
ASCA44 KEWX 050620
RWRMX

LATIN AMERICA AND CARIBBEAN REGIONAL WEATHER ROUNDUP
NATIONAL WEATHER SERVICE AUSTIN/SAN ANTONIO TX
100 AM CDT THU MAY 05 2016

NOTE: "FAIR" INDICATED FEW OR NO CLOUDS BELOW 12,000 FEET WITH NO
SIGNIFICANT WEATHER AND/OR OBSTRUCTIONS TO VISIBILITY.

BAJA CALIFORNIA

CITY           SKY/WX    TMP DP  RH WIND       PRES   REMARKS
LA PAZ           N/A    N/A N/A N/A MISG        N/A
MEXICALI       PTCLDY    75  50  41 CALM      29.75R
S.J. DEL CABO  CLEAR     70  39  32 CALM      29.92S
TIJUANA        PTCLDY    57  48  72 W6        29.97S

NORTHWESTERN MEXICO

CITY           SKY/WX    TMP DP  RH WIND       PRES   REMARKS
HERMOSILLO     MOCLDY    75  37  25 CALM      29.89S

NORTHEASTERN MEXICO

CITY           SKY/WX    TMP DP  RH WIND       PRES   REMARKS
MONCLOVA         N/A    N/A N/A N/A MISG        N/A
MONTERREY      CLEAR     70  54  56 CALM      30.06S
REYNOSA          N/A    N/A N/A N/A MISG        N/A
SALTILLO       CLEAR     57  45  62 CALM      30.24F
CD. VICTORIA     N/A    N/A N/A N/A MISG        N/A

WESTERN MEXICO

CITY           SKY/WX    TMP DP  RH WIND       PRES   REMARKS
AGUASCALIENTES   N/A    N/A N/A N/A MISG        N/A
COLIMA           N/A    N/A N/A N/A MISG        N/A
DEL BAJIO      PTCLDY    68  50  52 NE8       30.29R
GUADALAJARA    CLEAR     73  41  31 W13       30.18R
MAZATLAN       CLEAR     66  61  82 CALM      29.94R
P. VALLARTA    CLEAR     75  72  88 CALM      29.94S
URUAPAN          N/A    N/A N/A N/A MISG        N/A
ZACATECAS      CLEAR     64  28  25 W12       30.29R

CENTRAL MEXICO

CITY           SKY/WX    TMP DP  RH WIND       PRES   REMARKS
CUERNAVACA       N/A    N/A N/A N/A MISG        N/A
MEXICO CITY    CLEAR     64  50  59 W6        30.35S
MORELIA        PTCLDY    68  50  52 SW5       30.22R
POZA RICA        N/A    N/A N/A N/A MISG        N/A
S. LUIS POTOSI PTCLDY    57  52  82 SE12      30.30R
TOLUCA         MOCLDY    57  50  77 E3        30.43R

SOUTHERN MEXICO

CITY           SKY/WX    TMP DP  RH WIND       PRES   REMARKS
ACAPULCO       MOCLDY    79  77  94 CALM      29.94R
B. DE HUATULCO   N/A    N/A N/A N/A MISG        N/A
P. ESCONDIDO     N/A    N/A N/A N/A MISG        N/A
VERACRUZ         N/A    N/A N/A N/A MISG        N/A

YUCATAN PENINSULA

CITY           SKY/WX    TMP DP  RH WIND       PRES   REMARKS
CAMPECHE         N/A    N/A N/A N/A MISG        N/A
CANCUN         MOCLDY    75  75 100 NW5       29.89F
CHETUMAL         N/A    N/A N/A N/A MISG        N/A
CD. DEL CARMEN   N/A    N/A N/A N/A MISG        N/A
COZUMEL        PTCLDY    75  73  94 N7        29.89F
MERIDA         PTCLDY    77  68  73 CALM      29.93F
MINATITLAN       N/A    N/A N/A N/A MISG        N/A
TAPACHULA      MOCLDY    77  75  94 E9        29.86F

CENTRAL AMERICA

CITY           SKY/WX    TMP DP  RH WIND       PRES   REMARKS
MANAGUA        PTCLDY    82  77  83 NW9       29.83S HX  91

CARIBBEAN

CITY           SKY/WX    TMP DP  RH WIND       PRES   REMARKS
CURACAO        PTCLDY    81  75  83 E13       29.86F
KINGSTON       PTCLDY    82  75  78 SE9       29.86F
NASSAU         PTCLDY    72  72 100 S6        29.74F
SAN JUAN       PTCLDY    79  73  83 CALM      29.95F
SANTO DOMINGO  PTCLDY    77  73  88 SE6       29.89F
ST. CROIX      MOCLDY    79  73  83 E9        29.97F
ST. THOMAS     PTCLDY    81  73  78 E9        29.96F

$$





USA.gov is the U.S. government's official web portal to all federal, state and local government web resources and services.